COSMOS 2432 (719)

Last updated on Wed Sep 17 2025 00:03:19 GMT+0000 (Coordinated Universal Time)

1 32276U 07052B 25259.40693123 -.00000059 00000+0 00000+0 0 9998 2 32276 65.7432 325.2625 0009003 308.4062 49.0890 2.13103080139246
UTC large
Height (km)
Speed (km/s)
/
Latitude / Longitude
Inclination (degrees)
Orbital Period (minutes)
Azimuth
Elevation
Range (km)
Doppler Factor

Next 0 passes for location: London (51.5072 / 0.1276)

Sorry there are no passes over London.